Location: Cary
(35.7910°N, 78.7810°W)
Time: 04:36:35
(UTC-05:00)

OTV 5 (USA 277) - Visible Passes

Search period start: 24 November 2017 00:00
Search period end: 04 December 2017 00:00
Orbit: 404 x 417 km, 43.0° (Epoch: 07 September)

Date Brightness Start Highest point End Pass type
(mag) Time Alt. Az. Time Alt. Az. Time Alt. Az.
24 Nov ? 04:52:12 10° SSE 04:52:12 10° SSE 04:52:16 10° SSE visible
29 Nov ? 18:47:22 10° SSW 18:49:09 22° S 18:49:09 22° S visible
30 Nov ? 17:57:05 10° S 17:59:19 17° SE 18:00:45 13° ESE visible
30 Nov ? 19:32:59 10° WSW 19:33:31 14° WSW 19:33:31 14° WSW visible
01 Dec ? 18:41:55 10° SW 18:45:03 68° S 18:45:03 68° S visible
02 Dec ? 17:51:01 10° SW 17:54:15 43° SSE 17:56:31 17° E visible
02 Dec ? 19:28:27 10° W 19:29:16 16° W 19:29:16 16° W visible
03 Dec ? 18:37:11 10° W 18:40:27 50° NNW 18:40:41 48° N visible
